www.pogodaiklimat.ru

Погода и климат >> Архив погоды >> Иран >> Sirri Island


ПОГОДА в Sirri Island

  • Прогноз погоды в Sirri Island
  • Монитор погоды в Sirri Island
  • Климат города

АРХИВ ПОГОДЫ в Sirri Island

Время (UTC), дата Ветер
(напр.,м/с)
 
Видим.   Явления Облачность Т
(С)
Тd
(С)
f
(%)
Тe
(С)
Тes
(С)
Комфортность P
(гПа)
Po
(гПа)
Тmin
(С)
Tmax
(С)
R
(мм)
R24
(мм)
S
(см)
03 11.10 СВ 9 10 км ясно +30.6 +26.2 77 +46 +46 опасность
перегрева
1010.9 1010.4 +30.0
06 11.10 В 9 10 км ясно +32.0 1012.3 1011.8
09 11.10 ЮВ 2 10 км ясно +34.2 +24.0 55 +46 +60 опасность
перегрева
1010.5 1010.0
12 11.10 ЮВ 2 10 км ясно +35.0 1009.1 1008.6
15 11.10 ЮЗ 2 10 км ясно +32.0 +21.8 55 +41 +41 опасность
перегрева
1009.6 1009.1 +35.0
03 12.10 СВ 6 10 км ясно +31.6 +23.6 63 +43 +43 опасность
перегрева
1011.7 1011.2 +28.2
06 12.10 В 6 10 км ясно +32.4 1013.2 1012.7
09 12.10 В 2 10 км ясно +33.4 +24.4 59 +46 +60 опасность
перегрева
1011.6 1011.1
12 12.10 СВ 2 10 км ясно +32.0 1010.8 1010.3
15 12.10 штиль 0 8000 м мгла ясно +30.0 +24.0 70 +41 +41 опасность
перегрева
1011.0 1010.5 +34.0
03 13.10 СВ 4 10 км ясно +31.0 +23.8 66 +43 +43 опасность
перегрева
1012.7 1012.2 +28.4
06 13.10 ЮВ 5 10 км ясно +33.2 1014.4 1013.9
09 13.10 ЮВ 4 10 км ясно +34.4 +17.4 36 +38 +47 очень
душно
1013.4 1012.9
12 13.10 Ю 3 10 км ясно +34.0 1012.2 1011.7
15 13.10 СЗ 3 10 км ясно +32.0 +25.6 69 +47 +47 опасность
перегрева
1012.2 1011.7 +35.0
03 14.10 В 6 10 км ясно +31.0 +25.4 72 +45 +45 опасность
перегрева
1013.8 1013.3 +29.6
06 14.10 ЮВ 6 10 км ясно +31.0 1015.7 1015.2
09 14.10 Ю 9 10 км ясно +33.8 +22.5 52 +43 +45 опасность
перегрева
1014.0 1013.5
12 14.10 ЮЗ 5 10 км ясно +33.0 1012.6 1012.1
15 14.10 ЮЗ 2 10 км 1/1 900 м
[Cu med, cong]
+31.0 +25.4 72 +45 +45 опасность
перегрева
1012.6 1012.1 +34.8
03 15.10 Ю 2 10 км ясно +30.0 +25.8 78 +45 +45 опасность
перегрева
1014.4 1013.9 +29.0
06 15.10 ЮЗ 5 10 км ясно +33.0 1015.1 1014.6
09 15.10 ЮЗ 6 10 км ясно +34.0 +24.1 56 +46 +51 опасность
перегрева
1013.8 1013.3
12 15.10 ЮЗ 7 10 км 5/5 600 м
[Sc diur, vesp]
+34.0 1012.2 1011.7
15 15.10 З 6 8000 м мгла 3/3 900 м
[Sc diur, vesp]
+32.0 +22.4 57 +41 +41 опасность
перегрева
1013.1 1012.6 +36.2
03 16.10 СЗ 2 10 км ясно +30.4 +23.3 66 +41 +41 опасность
перегрева
1013.6 1013.1 +27.4
06 16.10 ЮЗ 4 10 км ясно +33.0 1014.8 1014.3
09 16.10 З 5 10 км 3/3 900 м
[Sc diur, vesp]
+34.0 +22.4 51 +43 +48 опасность
перегрева
1012.9 1012.4
12 16.10 ЮЗ 5 10 км ясно +34.0 1011.4 1010.5
15 16.10 З 4 10 км ясно +32.0 +21.7 55 +41 +41 опасность
перегрева
1012.2 1001.7 +35.2
03 17.10 СВ 5 10 км ясно +30.0 +22.7 65 +40 +40 очень
душно
1014.0 1013.5 +28.6
06 17.10 СВ 4 10 км ясно +31.4 1014.9 1014.4
09 17.10 СВ 4 8000 м мгла ясно +32.0 +21.7 55 +41 +50 опасность
перегрева
1013.0 1012.5
12 17.10 СВ 4 10 км ясно +34.0 1010.9 1010.4
15 17.10 СЗ 2 10 км ясно +30.0 +18.6 50 +35 +35 очень
душно
1011.2 1010.7 +34.4

 

Местоположение метеостанции Sirri Island (Иран): широта 25.91 долгота 54.55 высота над уровнем моря 4 м.

В архиве по умолчанию представлена погода в Sirri Island за последнюю неделю. Архивные данные за месяц целиком и за предыдущие месяцы, начиная с января 2011 года, Вы можете получить, выбрав интересующий диапазон дат из раскрывающегося списка и нажав кнопку "Ввод!".


*Определитесь, кто Вы:
робот инопланетянин человек

Внимание! Время в таблицах - всемирное. Для получения местного времени необходимо прибавить поправку, которая в Sirri Island равна 3.5 ч.

Смотрите также архив погоды в соседних городах и на ближайших метеорологических станциях:

Погода в Abu Musa Island (Иран) (29 км)
Погода в Bandar Lengeh (Иран) (80 км)
Погода в Kish Island (Иран) (87 км)
Погода в Dubai (ОАЭ) (107 км)
Погода в Sharjah (ОАЭ) (117 км)
Погода в Dubai Al Maktoum Int Airport (ОАЭ) (128 км)
Погода в Ras Al Khaimah Int Airport (ОАЭ) (142 км)
Погода в Abu Dhabi Bateen Airport (ОАЭ) (165 км)
Погода в Abu Dhabi (ОАЭ) (165 км)
Погода в Khasab Airport (Оман) (170 км)

Пояснения к столбцам:

Ветер - указаны скорость ветра в м/с - средняя за 10 мин, порывы в срок и между сроками (в фигурных скобках) и направление, откуда дует ветер: С - северный, СВ - северо-восточный, В - восточный, ЮВ - юго-восточный, Ю - южный, ЮЗ - юго-западный, З - западный, СЗ - северо-западный.
Видимость - горизонтальная дальность видимости в метрах или километрах. При видимости от 1 до 10 км при отсутствии осадков обычно наблюдается дымка, при ухудшении видимости до 1 км и менее - туман. В сухую погоду видимость может ухудшаться дымом, пылью или мглою.
Явления - указаны атмосферные явления, наблюдавшиеся в срок или в последний час перед сроком; фигурными скобками обозначены явления, наблюдавшиеся между сроками (за 1-3 часа до срока); квадратными скобками обозначены град или гололедные отложения с указанием их диаметра в мм.
Облачность - указаны через наклонную черту общая и нижняя облачность в баллах и высота нижней границы облаков в метрах; квадратными скобками обозначены формы облаков: Ci - перистые, Cs - перисто-слоистые, Cc - перисто-кучевые, Ac - высококучевые, As - высокослоистые, Sc - слоисто-кучевые, Ns - слоисто-дождевые, Cu - кучевые, Cb - кучево-дождевые. Подробнее классификацию облаков см. в Атласе облаков (PDF).
T - Температура воздуха - температура, измеренная на высоте 2 м над землей.
Td - Температура точки росы - температура, при понижении до которой содержащийся в воздухе водяной пар достигнет насыщения.
f - Относительная влажность воздуха - влажноcть воздуха, измеренная на высоте 2 м над землей.
Te - Эффективная температура - температура, которую ощущает одетый по сезону человек в тени. Характеристика душности погоды. При расчете учитывается влияние влажности воздуха и скорости ветра на теплоощущения человека.
Tes - Эффективная температура на солнце - температура, которую ощущает человек, с поправкой на солнечный нагрев. Характеристика знойности погоды. Зависит от высоты солнца над горизонтом, облачности и скорости ветра. Ночью, в пасмурную погоду, а также при ветре 12 м/с и более поправка равна нулю.
P - Атмосферное давление - приведенное к уровню моря атмосферное давление.
Po - Атмосферное давление - измеренное на уровне метеостанции атмосферное давление.
Tmin - Минимальная температура - минимум температуры воздуха на высоте 2 м над землей.
Tmax - Максимальная температура - максимум температуры воздуха на высоте 2 м над землей.
R - Количество осадков - Количество выпавших осадков за период времени, мм. При наведении курсора мыши на число - период времени, за который выпало указанное количество осадков.
R24 - Количество осадков - Количество выпавших осадков за 24 часа, мм.
S - Снежный покров - Высота снежного покрова, см. При наведении курсора мыши на число - состояние снежного покрова и степень покрытия местности в баллах.